This is the latest recevied weather packets stored in our database for station/object N4HAC. If no packets are shown the sender has not sent any weather packets the latest 10 day(s).
| Time | Temp. | Humidity | Pressure | Rain* | Wind** | Luminosity | Snow |
|---|---|---|---|---|---|---|---|
| 1777243428 | 12.22° C | 77% | 1015 hPa | 0 mm | - | 79 W/m² | - |
| 1777243124 | 12.22° C | 77% | 1015.1 hPa | 0 mm | - | 111 W/m² | - |
| 1777242821 | 11.67° C | 77% | 1015.1 hPa | 0 mm | - | 109 W/m² | - |
| 1777242517 | 11.67° C | 78% | 1014.8 hPa | 0 mm | - | 77 W/m² | - |
| 1777242213 | 11.67° C | 78% | 1015 hPa | 0 mm | - | 57 W/m² | - |
| 1777241912 | 11.67° C | 77% | 1015.1 hPa | 0 mm | - | 67 W/m² | - |
| 1777241608 | 12.22° C | 77% | 1014.9 hPa | 0 mm | - | 65 W/m² | - |
| 1777241306 | 11.67° C | 76% | 1014.9 hPa | 0 mm | - | 61 W/m² | - |
| 1777241003 | 12.22° C | 76% | 1015 hPa | 0 mm | - | 63 W/m² | - |
| 1777240700 | 12.22° C | 77% | 1014.7 hPa | 0 mm | - | 70 W/m² | - |
| 1777240398 | 12.22° C | 77% | 1014.9 hPa | 0 mm | - | 76 W/m² | - |
| 1777240095 | 12.22° C | 77% | 1014.9 hPa | 0 mm | - | 79 W/m² | - |
| 1777239794 | 12.22° C | 75% | 1014.7 hPa | 0 mm | - | 88 W/m² | - |
| 1777239489 | 12.22° C | 77% | 1014.6 hPa | 0 mm | - | 82 W/m² | - |
| 1777239186 | 12.22° C | 76% | 1014.4 hPa | 0 mm | - | 85 W/m² | - |
| 1777238883 | 11.67° C | 76% | 1014.5 hPa | 0 mm | - | 92 W/m² | - |
| 1777238580 | 12.22° C | 76% | 1014.2 hPa | 0 mm | - | 115 W/m² | - |
| 1777238277 | 11.67° C | 75% | 1014.3 hPa | 0 mm | - | 114 W/m² | - |
| 1777237974 | 11.67° C | 75% | 1014.3 hPa | 0 mm | - | 133 W/m² | - |
| 1777237670 | 11.67° C | 76% | 1014.2 hPa | 0 mm | - | 118 W/m² | - |
| 1777237368 | 11.67° C | 76% | 1014.4 hPa | 0 mm | - | 92 W/m² | - |
| 1777237065 | 11.67° C | 77% | 1014.4 hPa | 0 mm | - | 85 W/m² | - |
| 1777236763 | 11.67° C | 76% | 1014.1 hPa | 0 mm | - | 84 W/m² | - |
| 1777236461 | 12.22° C | 76% | 1014.2 hPa | 0 mm | - | 100 W/m² | - |
| 1777236158 | 11.67° C | 76% | 1014 hPa | 0 mm | - | 119 W/m² | - |
* Rain latest hour (hover to see other rain measurements)
** Current wind speed in m/s (hover to see current wind gust speed)